Location: Hradec Kralove
(50.2170°N, 15.8330°E)
Time: 08:28:42
(UTC+01:00)

X-37B - Pass Details

Date: 15 December 2022
Orbit: 277 x 277 km, 45.0° (Epoch: 01 November)

Event Time Altitude Azimuth Distance (km) Brightness Sun altitude
Rises 17:01:40 0° 255° (WSW) 1,915 6.1 -10.1°
Reaches altitude 10° 17:03:46 10° 240° (WSW) 1,101 4.5 -10.4°
Maximum altitude 17:05:49 23° 183° (S) 644 2.0 -10.7°
Drops below altitude 10° 17:07:52 10° 126° (SE) 1,101 2.6 -11.0°
Enters shadow 17:08:06 - 124° (ESE) 1,184 2.7 -11.1°
